Weather in Chikhachevo

Russia / Pskov Oblast     57°17′08″N   29°54′14″E
temp.,
°C
wind,
m/s
gust,
m/s
humid.,
%
clouds,
%
prec.,
mm/h
press.,
hPa
HPBL,
m
11 april, sun
sun1100:00+2wsw2396100 0.0 102154
03:00+2ssw1194100 0.0 102310
06:00+2sse119499 0.0 102320
09:00+6s1280100 0.0 1025331
12:00+7s2369100 0.0 1026762
15:00+10se2468100 0.0 1027975
18:00+7ese2691100 0.0 1027249
21:00+7ese269492 0.0 1027158
12 april, mon
mon1200:00+7se279390 0.0 1027134
03:00+6sse31190100 0.0 1028215
06:00+6sse31187100 0.0 1028232
09:00+9sse41273100 0.0 1028403
12:00+14sse595229 0.0 10271006
15:00+16sse58435 0.0 10251507
18:00+15sse48483 0.0 10231146
21:00+9sse28700 0.0 1023130
13 april, tue
tue1300:00+7sse39779 0.0 1022161
03:00+6sse288593 0.0 1021156
06:00+5sse279439 0.0 1021136
09:00+10s367246 0.0 1021298
12:00+15s4651100 0.0 1020976
15:00+17ssw354335 0.0 10201730
18:00+14wnw366257 0.0 1019343
21:00+7nw378792 0.0 1022344
14 april, wed
wed1400:00+6nnw3787100 0.0 1022356
03:00+5n3985100 0.0 1022444
06:00+5n3890100 1.3 1021494
09:00+4n4992100 4.4 1022588
12:00+3n41096100 1.9 1022564
15:00+3nne41096100 2.6 1023600
18:00+3nne41193100 0.1 1023637
21:00+3nne41195100 0.4 1024632
15 april, thu
thu1500:00+3nne41185100 0.2 1024683
03:00+3nne41088100 0.3 1024654
06:00+2nne41188100 0.0 1024624
09:00+3nne4117598 0.0 1024739
12:00+6nne586196 0.0 1025950
15:00+7nne695199 0.0 10251033
18:00+7ne51150100 0.0 10251194
21:00+4nne5135854 0.0 1027622